Find Starlink 5512

NORAD ID: 57256 Int'l Des: 2023-094 Owner: SPXS Country: US Constellation: starlink operational
LEOCIRCULAR

当前视图

正在加载3D地球...

About Starlink 5512

Starlink 5512 (NORAD 57256) is a starlink constellation satellite (v1.5) launched Jul 7, 2023 by SPXS of US. It operates in LEO, CIRCULAR orbit with a mass of 305.00 kg.

关于 Starlink 5512

正在加载描述...

即将过境

Passes for default location (London). Set your location on the main map for personalized predictions.

高度历史

Loading altitude history...

两行轨道根数

1 57256U 23094AQ 26194.51835070 -.00000635 00000-0 -13548-4 0 9995
2 57256 43.0056 29.3007 0001192 268.2406 91.8310 15.27577889166483
Epoch: Jul 13, 2026 • Age: 22 hours

当前状态

高度 494.6 km
远地点 / 近地点 N/A
速度 7.62 km/s
星下点 -40.72°S, 170.56°W
发射日期 Jul 7, 2023
运行时间 3 years
类型 internet

技术详情

分类 Payload
质量 305.00 kg
干质量 290.00 kg
总质量 305.00 kg
长度 0.20 m
直径 2.80 m
跨度 9.00 m
形状 Box + pan
制造商 SPXS
平台类型 Starlink
阶段状态 In Orbit
所有者/国家 SPXS/US

Most Searched